Date,TemperatureHighF,TemperatureAvgF,TemperatureLowF,DewpointHighF,DewpointAvgF,DewpointLowF,HumidityHigh,HumidityAvg,HumidityLow,PressureMaxIn,PressureMinIn,WindSpeedMaxMPH,WindSpeedAvgMPH,GustSpeedMaxMPH,PrecipitationSumIn
2013-1-1,48.2,41.5,35.4,48.0,40.6,33.0,99,96,89,30.16,29.99,6,0,7,0.00
2013-1-2,44.7,39.5,37.1,45.0,38.6,36.0,100,96,92,30.18,29.98,4,0,7,0.00
2013-1-3,40.1,36.0,29.6,37.0,34.2,29.0,98,93,75,30.39,30.16,3,0,7,0.00
2013-1-4,41.9,31.4,26.3,30.0,27.2,24.0,98,86,50,30.47,30.38,7,1,15,0.00
2013-1-5,46.7,34.1,23.9,37.0,29.1,23.0,97,84,44,30.48,30.28,4,0,7,0.00
2013-1-6,43.9,39.0,36.9,40.0,37.4,35.0,99,94,78,30.31,30.15,3,0,7,0.00
2013-1-7,49.4,37.0,29.5,38.0,32.4,28.0,97,84,60,30.45,30.30,5,0,8,0.00
2013-1-8,55.3,36.7,26.8,41.0,32.4,26.0,98,87,46,30.47,30.32,3,0,5,0.00
2013-1-9,52.5,42.8,33.0,47.0,41.2,33.0,100,94,82,30.50,30.35,2,0,5,0.00
2013-1-10,65.7,53.6,43.6,56.0,49.6,43.0,100,87,65,30.49,30.18,12,2,23,0.00
2013-1-11,71.3,63.8,57.3,61.0,56.4,53.0,93,77,64,30.20,30.01,12,3,22,0.00
2013-1-12,72.1,59.7,52.6,65.0,58.0,52.0,100,94,74,30.13,29.98,3,0,5,0.00
2013-1-13,73.1,61.7,50.5,61.0,55.0,50.0,100,81,57,30.06,29.92,6,1,14,0.00
2013-1-14,60.1,50.0,44.0,60.0,49.5,43.0,100,98,94,30.26,30.00,4,0,10,0.00
2013-1-15,47.8,45.2,43.3,48.0,44.8,43.0,100,98,96,30.18,29.96,3,0,6,0.00
2013-1-16,59.1,49.5,46.0,56.0,49.0,46.0,100,97,88,30.05,29.89,5,0,8,0.00
2013-1-17,46.1,40.7,33.3,46.0,40.2,33.0,99,98,95,30.35,29.92,3,0,7,0.00
2013-1-18,43.2,34.4,29.3,40.0,33.1,28.0,99,95,78,30.58,30.36,4,0,7,0.00
2013-1-19,48.5,35.5,29.7,39.0,33.1,29.0,99,92,68,30.47,30.23,3,1,6,0.00
2013-1-20,55.2,38.0,29.8,39.0,33.5,29.0,99,86,48,30.24,30.12,9,1,19,0.00
2013-1-21,48.2,36.5,28.2,33.0,25.5,16.0,98,69,37,30.20,30.08,15,2,17,0.00
2013-1-22,32.7,28.6,23.1,17.0,8.9,3.0,59,45,30,30.36,30.18,10,3,18,0.00
2013-1-23,45.0,34.0,25.4,34.0,19.0,5.0,85,56,36,30.40,30.13,9,2,15,0.00
2013-1-24,47.0,36.1,24.7,37.0,21.5,7.0,71,57,31,30.43,30.11,15,2,17,0.00
2013-1-25,34.4,30.0,23.8,34.0,25.3,12.0,98,84,48,30.38,30.12,3,0,9,0.00
2013-1-26,47.6,36.6,29.1,35.0,32.8,28.0,99,87,53,30.40,30.21,6,0,10,0.00
2013-1-27,50.9,38.2,27.0,39.0,32.5,26.0,98,82,52,30.47,30.35,6,1,11,0.00
2013-1-28,65.1,48.3,34.9,50.0,41.5,33.0,95,79,51,30.40,30.20,6,1,11,0.00
2013-1-29,74.5,57.3,41.9,58.0,49.9,41.0,98,79,46,30.23,29.89,8,1,14,0.00
2013-1-30,69.1,57.7,42.0,64.0,55.3,39.0,99,92,69,29.89,29.46,7,1,17,0.00
2013-1-31,41.2,36.6,32.9,39.0,28.1,23.0,95,73,50,30.04,29.63,12,2,22,0.00